Regional Weather Roundup
Issued by NWS

Home | Current Version | Previous Version | Text Only | Print | Product List | Glossary Off
Versions: 1 2 3 4 5 6 7 8 9 10 11 12 13 14 15 16 17 18 19 20 21 22 23 24 25 26 27 28 29 30 31 32 33 34 35 36 37 38 39 40 41 42 43 44 45 46 47 48 49 50

749
ASUS44 KJAN 211610
RWRMS

MISSISSIPPI HOURLY WEATHER ROUNDUP
NATIONAL WEATHER SERVICE JACKSON MS
1000 AM CST SUN DEC 21 2014

NOTE: "FAIR: INDICATES FEW OR NO CLOUDS BELOW 12,000 FEET WITH NO
SIGNIFICANT WEATHER AND/OR OBSTRUCTIONS TO VISIBILITY.

MSZ001>002-007>008-010>013-018>021-025>028-034>036-211700-
NORTHWEST MISSISSIPPI

CITY           SKY/WX    TMP DP  RH WIND       PRES   REMARKS
CLARKSDALE     FAIR      43  36  75 NE5       30.21S
CLEVELAND      FAIR      46  38  73 E7        30.19S
GREENWOOD      SUNNY     46  35  65 NE5       30.19S
GREENVILLE     SUNNY     48  36  63 E6        30.18R
GRENADA        FAIR      45  34  65 CALM      30.20F
OLIVE BRANCH   MOSUNNY   41  36  81 CALM      30.21F
OXFORD         FAIR      46  32  57 E3        30.21F
TUNICA         SUNNY     43  34  70 E5        30.21F
$$

MSZ003>006-009-014>017-022>024-029>033-037>039-211700-
NORTHEAST MISSISSIPPI

CITY           SKY/WX    TMP DP  RH WIND       PRES   REMARKS
COLUMBUS AFB   CLOUDY    43  36  75 CALM      30.19F HAZE
CORINTH        FAIR      45  34  65 CALM      30.20F
GOLDN TRIANGLE CLOUDY    39  36  87 NE5       30.18S
STARKVILLE     CLOUDY    43  36  75 CALM      30.19S
TUPELO         SUNNY     44  33  65 NE3       30.20S
$$

MSZ040-058-211700-
CENTRAL MISSISSIPPI

CITY           SKY/WX    TMP DP  RH WIND       PRES   REMARKS
JACKSON INTL   MOSUNNY   50  41  71 E3        30.16S
JACKSON HAWKNS SUNNY     50  41  71 E6        30.16F
MERIDIAN KEY   CLOUDY    46  42  86 NE6       30.17R
MERIDIAN NAS   CLOUDY    45  42  89 CALM      30.17F FOG
RAYMOND        FAIR      50  46  87 SE3       30.16S
VICKSBURG      SUNNY     50  39  66 E6        30.17R
$$

MSZ059>079-211700-
SOUTH MISSISSIPPI

CITY           SKY/WX    TMP DP  RH WIND       PRES   REMARKS
HATTIESBURG    CLOUDY    47  45  93 NE3       30.15F
MCCOMB         PTSUNNY   47  43  86 VRB3      30.13R
NATCHEZ        PTSUNNY   46  43  87 E6        30.15F
PINE BELT      CLOUDY    45  43  93 NE6       30.15S
$$

MSZ080>082-211700-
COASTAL MISSISSIPPI

CITY           SKY/WX    TMP DP  RH WIND       PRES   REMARKS
BAY ST LOUIS   MOSUNNY   54  45  71 NE5       30.11
BILOXI         CLOUDY    55  50  82 E7        30.12
PASCAGOULA     CLOUDY    55  50  83 E6        30.12S
GULFPORT       CLOUDY    54  49  83 E8        30.12R
$$



USA.gov is the U.S. government's official web portal to all federal, state and local government web resources and services.